Regional Weather Roundup
Issued by NWS

Home | Current Version | Previous Version | Graphics & Text | Print | Product List | Glossary On
Versions: 1 2 3 4 5 6 7 8 9 10 11 12 13 14 15 16 17 18 19 20 21 22 23 24 25 26 27 28 29 30 31 32 33 34 35 36 37 38 39 40 41 42 43 44 45 46 47 48 49 50
000
ASUS43 KOAX 201402
RWRNE

WEATHER ROUNDUP FOR NEBRASKA
NATIONAL WEATHER SERVICE OMAHA NE
800 AM CST THU NOV 20 2014

NOTES: SATELLITE DATA IS BEING USED TO AUGMENT CLOUD COVER ABOVE
       12000 FEET.
       "FAIR" INDICATES FEW OR NO CLOUDS BELOW 12,000 FEET WITH NO
       SIGNIFICANT WEATHER AND/OR OBSTRUCTIONS TO VISIBILITY.

  * THESE STATIONS DO NOT REPORT WEATHER SUCH AS RAIN...SNOW OR FOG.

NEZ001>004-019>022-054>056-201500-
NEBRASKA PANHANDLE

CITY           SKY/WX    TMP DP  RH WIND       PRES   REMARKS
SCOTTSBLUFF    PTCLDY    13  10  88 W3        30.01R
ALLIANCE       PTCLDY    10   7  87 SW5       30.00R WCI   2
CHADRON        PTCLDY     6   3  87 W6        30.02R WCI  -4
KIMBALL        PTCLDY    16  12  84 W6        29.98R WCI   7
SIDNEY         CLEAR     14  10  84 W9        30.00S WCI   2
$$

NEZ057>060-069>072-079>082-201500-
SOUTHWEST NEBRASKA

CITY           SKY/WX    TMP DP  RH WIND       PRES   REMARKS
NORTH PLATTE   MOCLDY     7   4  87 CALM      30.07R
IMPERIAL       PTCLDY    17  12  80 NW6       30.04R WCI   9
MCCOOK         PTCLDY    10   7  87 W7        30.07R WCI  -1
$$

NEZ005>010-023>029-035>040-094-201500-
NORTH CENTRAL NEBRASKA

CITY           SKY/WX    TMP DP  RH WIND       PRES   REMARKS
VALENTINE      CLOUDY    17  14  88 CALM      30.08R
AINSWORTH      CLOUDY    14  12  92 E3        30.08S
BROKEN BOW     PTCLDY     8   4  83 CALM      30.09S
ORD            PTCLDY     7   3  84 SW3       30.14R
$$

NEZ041-046>049-061>064-073>077-083>087-201500-
SOUTH CENTRAL NEBRASKA

CITY           SKY/WX    TMP DP  RH WIND       PRES   REMARKS
GRAND ISLAND   CLEAR     12   8  84 N5        30.17R WCI   4
AURORA         PTCLDY    12   9  89 CALM      30.16S
HASTINGS       MOCLDY    19  13  77 SE5       30.14R WCI  12
HEBRON         PTCLDY    14  11  87 CALM      30.18R
HOLDREGE       PTCLDY    16  13  88 CALM      30.12R
KEARNEY *      MOCLDY    14  10  85 SE6       30.14R WCI   5
YORK           PTCLDY     9   5  85 W5        30.18R WCI   0
$$

NEZ011>018-030>034-042>045-201500-
NORTHEAST NEBRASKA

CITY           SKY/WX    TMP DP  RH WIND       PRES   REMARKS
NORFOLK        CLOUDY    15  12  88 W6        30.17R WCI   6
ALBION         CLOUDY     7   2  82 CALM      30.17R
BLAIR          MOCLDY    15  11  85 W3        30.18S
COLUMBUS *     PTCLDY     7   0  72 CALM      30.20R
FREMONT        CLOUDY    11   8  85 CALM      30.20R
TEKAMAH        MOCLDY    15   9  76 W8        30.21R WCI   4
$$

NEZ050>053-065>068-078-088>093-201500-
SOUTHEAST NEBRASKA

CITY           SKY/WX    TMP DP  RH WIND       PRES   REMARKS
LINCOLN        PTCLDY    10   5  80 CALM      30.22R
OMAHA EPPLEY   PTCLDY    16  13  88 E3        30.23R
BEATRICE       PTCLDY    12   9  87 CALM      30.20R
FALLS CITY     CLEAR     15  12  88 SW5       30.22R WCI   8
NEBRASKA CITY  CLEAR     17  11  78 NW6       30.20S WCI   8
$$

NEZ044-045-051>053-067-201500-
OMAHA AREA

CITY           SKY/WX    TMP DP  RH WIND       PRES   REMARKS
OMAHA EPPLEY   PTCLDY    16  13  88 E3        30.23R
BLAIR          MOCLDY    15  11  85 W3        30.18S
FREMONT        CLOUDY    11   8  85 CALM      30.20R
OFFUTT AFB     CLEAR     15  10  82 W2        30.21R
WAHOO          FAIR       9   6  87 CALM      30.21R
$$


USA.gov is the U.S. government's official web portal to all federal, state and local government web resources and services.